Overview Statistics Trail Chart Weather Telemetry Raw packets
 

This is the latest recevied weather packets stored in our database for station/object KB1WCR. If no packets are shown the sender has not sent any weather packets the latest 10 day(s).

<< 63 64 65 66 67 68 69 >>
Time Temp. Humidity Pressure Rain* Wind** Luminosity Snow
1787962150 21.11° C 99% 1014.4 hPa 0 mm - 0 W/m² -
1787961845 21.11° C 99% 1014.2 hPa 0 mm - 0 W/m² -
1787961537 21.11° C 99% 1014.1 hPa 0 mm - 0 W/m² -
1787961232 21.11° C 99% 1014.3 hPa 0 mm - 0 W/m² -
1787960931 21.11° C 99% 1014.3 hPa 0 mm - 0 W/m² -
1787960627 21.67° C 98% 1014.2 hPa 0 mm - 0 W/m² -
1787960325 21.67° C 98% 1014.2 hPa 0 mm - 0 W/m² -
1787960020 21.67° C 97% 1014.2 hPa 0 mm - 1 W/m² -
1787959715 22.22° C 97% 1014.1 hPa 0 mm - 2 W/m² -
1787959411 22.22° C 96% 1014.2 hPa 0 mm - 4 W/m² -
1787959105 22.78° C 96% 1014.2 hPa 0 mm - 6 W/m² -
1787958800 22.78° C 95% 1014.1 hPa 0 mm - 9 W/m² -
1787958496 23.33° C 94% 1014.2 hPa 0 mm - 12 W/m² -
1787958192 23.89° C 92% 1013.8 hPa 0 mm - 15 W/m² -
1787957890 23.89° C 92% 1014.1 hPa 0 mm - 18 W/m² -
1787957584 24.44° C 90% 1014.1 hPa 0 mm - 24 W/m² -
1787957275 24.44° C 90% 1013.8 hPa 0 mm - 28 W/m² -
1787956974 24.44° C 89% 1013.9 hPa 0 mm - 32 W/m² -
1787956667 25° C 90% 1014 hPa 0 mm - 38 W/m² -
1787956363 25° C 89% 1013.9 hPa 0 mm - 44 W/m² -
1787956058 25° C 89% 1013.8 hPa 0 mm - 47 W/m² -
1787955753 25° C 89% 1013.7 hPa 0 mm - 51 W/m² -
1787955449 25° C 87% 1013.9 hPa 0 mm - 48 W/m² -
1787955147 25° C 87% 1013.8 hPa 0 mm - 57 W/m² -
1787954844 25.56° C 86% 1013.8 hPa 0 mm - 64 W/m² -

* Rain latest hour (hover to see other rain measurements)
** Current wind speed in m/s (hover to see current wind gust speed)